[[{"header":{"parameterUnit":"m.s-1","parameterCategory":1,"la1":30.2991,"la2":30.254,"lo1":-89.0895,"lo2":-89.0444,"dy":0.0017,"dx":0.0017,"nx":28,"ny":28,"refTime":"2025-06-02T21:00:00:Z","depth":0,"parameterNumber":2,"parameterNumberName":"U-component_of_WINDS"},"data":[0,0,0,0,0,0,0,0,0,0,0,0,0,0,0,0,0,0,0,0,0,0,0,0,0,0,0,0,0,0,0,0,0,0,0,0,0,0,0,0,0,0,0,0,0,0,0,0,0,0,0,0,0,0,0,0,0,0,-2.4197,-2.4196,0,-2.41,-2.4099,-2.4098,-2.3977,-2.3975,-2.3973,-2.3971,-2.3876,-2.3875,-2.3874,0,0,0,0,0,0,0,0,0,0,0,0,0,-2.4282,-2.4281,-2.4197,-2.4196,-2.4195,-2.4101,-2.4099,-2.4098,-2.3978,-2.3975,-2.3973,-2.3971,-2.3876,-2.3875,-2.3874,0,0,0,0,0,0,0,0,0,0,0,0,0,-2.4221,-2.4281,-2.4197,-2.4123,-2.4115,-2.4101,-2.4099,-2.4098,-2.3978,-2.3975,-2.3972,-2.3969,-2.3876,-2.3875,-2.3874,-2.3925,0,0,-2.3871,-2.387,0,0,0,0,0,0,0,0,-2.4225,-2.4218,-2.4135,-2.4128,-2.412,-2.4048,-2.4094,-2.404,-2.3979,-2.403,-2.3971,-2.3968,-2.3936,-2.3929,-2.3918,-2.3921,-2.3917,-2.3871,-2.387,-2.3869,-2.3869,0,0,0,0,0,0,0,-2.4229,-2.4222,-2.4159,-2.4134,-2.4125,-2.4096,-2.4084,-2.4083,-2.4001,-2.4026,-2.4017,-2.4007,-2.3931,-2.3919,-2.3915,-2.3915,-2.3871,-2.387,-2.3869,-2.3868,-2.3959,-2.3962,0,0,0,0,0,0,-2.4244,-2.4226,-2.4162,-2.4156,-2.4166,-2.4097,-2.4084,-2.4074,-2.4,-2.3986,-2.4009,-2.4001,-2.3922,-2.3916,-2.3911,-2.3967,-2.3869,-2.3868,-2.3868,-2.3956,-2.3959,-2.3963,0,0,0,0,0,0,-2.4246,-2.4239,-2.4166,-2.4189,-2.4177,-2.4099,-2.4088,-2.4073,-2.4061,-2.3988,-2.3973,-2.4012,-2.392,-2.3912,-2.3923,-2.3962,-2.3868,-2.3867,-2.3952,-2.3957,-2.3961,-2.408,0,0,0,0,0,0,-2.4249,-2.4241,-2.4258,-2.419,-2.4176,-2.4178,-2.4091,-2.4074,-2.406,-2.4048,-2.3986,-2.3974,-2.3917,-2.3925,-2.3922,-2.3959,-2.3866,-2.3948,-2.3954,-2.396,-2.4072,-2.4088,-2.4102,0,0,0,0,0,-2.4253,-2.4296,-2.426,-2.4253,-2.4196,-2.4181,-2.4173,-2.4106,-2.4063,-2.4081,-2.4034,-2.3975,-2.3959,-2.3927,-2.3923,-2.396,-2.3945,-2.3952,-2.3959,-2.4066,-2.4085,-2.4101,0,0,0,0,0,0,-2.4371,-2.4285,-2.4244,-2.4266,-2.4232,-2.416,-2.418,-2.4129,-2.4106,-2.4097,-2.4016,-2.4003,-2.4024,-2.3993,-2.396,-2.4007,-2.3944,-2.395,-2.4026,-2.4044,-2.4059,-2.4065,-2.3865,0,0,0,0,0,-2.4399,-2.4393,-2.4319,-2.4345,-2.433,-2.4259,-2.425,-2.4201,-2.4163,-2.4148,-2.4101,-2.4068,-2.4055,-2.4048,-2.4032,-2.4068,-2.4054,-2.4091,-2.4106,-2.4119,-2.4125,-2.4144,-2.416,-2.3985,-2.3985,-2.3985,0,0,-2.4458,-2.4411,-2.4411,-2.4368,-2.4335,-2.4332,-2.4247,-2.4247,-2.4244,-2.4148,-2.4155,-2.4121,-2.4078,-2.4102,-2.411,-2.4076,-2.417,-2.4127,-2.4138,-2.4137,-2.4153,-2.4169,-2.4184,-2.399,-2.3989,-2.3988,0,0,-2.4564,-2.4527,-2.4545,-2.4515,-2.4467,-2.442,-2.4425,-2.4362,-2.4335,-2.4341,-2.427,-2.4267,-2.4246,-2.4218,-2.4202,-2.4302,-2.4248,-2.4299,-2.4376,-2.4395,-2.4409,-2.4421,-2.4458,-2.4472,-2.4306,-2.4306,-2.4306,0,-2.4643,-2.4633,-2.4562,-2.4566,-2.455,-2.4464,-2.4483,-2.4458,-2.4408,-2.44,-2.4363,-2.4336,-2.4301,-2.4319,-2.4344,-2.4333,-2.4337,-2.4305,-2.4413,-2.4424,-2.4434,-2.4468,-2.4482,-2.4312,-2.4312,-2.4311,-2.431,0,-2.4734,-2.473,-2.4751,-2.4705,-2.4691,-2.4704,-2.4635,-2.4631,-2.4585,-2.4543,-2.4552,-2.4507,-2.4481,-2.4482,-2.4437,-2.4495,-2.4476,-2.4427,-2.4362,-2.4458,-2.4489,-2.4502,-2.4322,-2.4319,-2.4318,-2.4316,0,0,-2.4908,-2.4825,-2.4834,-2.4813,-2.4755,-2.4751,-2.4761,-2.4736,-2.4734,-2.4704,-2.4711,-2.4697,-2.4653,-2.4634,-2.4586,-2.4604,-2.4688,-2.4553,-2.4551,-2.458,-2.475,-2.4787,-2.4803,-2.4652,-2.4654,-2.4656,-2.4754,0,-2.5003,-2.5014,-2.4951,-2.4979,-2.4975,-2.4894,-2.4903,-2.4871,-2.4832,-2.4825,-2.4783,-2.4775,-2.4716,-2.4704,-2.4718,-2.4674,-2.4721,-2.4666,-2.466,-2.466,-2.4672,-2.4819,-2.4857,-2.4952,-2.4765,-2.4767,-2.4769,0,-2.5114,-2.509,-2.5118,-2.5062,-2.5058,-2.5067,-2.504,-2.5033,-2.4996,-2.4967,-2.4948,-2.4893,-2.4901,-2.484,-2.4851,-2.4816,-2.481,-2.4789,-2.4791,-2.4787,-2.472,-2.482,-2.498,-2.4995,-2.4787,-2.4785,-2.4784,0,-2.524,-2.5215,-2.5228,-2.5213,-2.5147,-2.5156,-2.5129,-2.5089,-2.5078,-2.5056,-2.5049,-2.5028,-2.5017,-2.5003,-2.4946,-2.4906,-2.4965,-2.4898,-2.4942,-2.4944,-2.4957,-2.4957,-2.5119,-2.4954,-2.4954,-2.4954,-2.4953,0,-2.5352,-2.5372,-2.5284,-2.5292,-2.5314,-2.5243,-2.5267,-2.5233,-2.5198,-2.52,-2.513,-2.5134,-2.5057,-2.5053,-2.5008,-2.5026,-2.5021,-2.4999,-2.4987,-2.5005,-2.5008,-2.4999,-2.4992,-2.4957,-2.4956,-2.4956,-2.4955,0,-2.5495,-2.5436,-2.5446,-2.5384,-2.5369,-2.5388,-2.5335,-2.5342,-2.5301,-2.5304,-2.5301,-2.5237,-2.5229,-2.517,-2.5149,-2.5119,-2.5153,-2.5128,-2.5166,-2.5157,-2.5205,-2.5202,-2.5367,-2.5386,-2.521,-2.5212,-2.5213,0,-2.557,-2.5583,-2.5524,-2.552,-2.5496,-2.5491,-2.548,-2.5413,-2.5405,-2.5365,-2.5378,-2.5364,-2.5349,-2.5341,-2.5293,-2.5277,-2.5252,-2.5311,-2.5249,-2.5268,-2.5253,-2.5253,-2.5255,-2.5324,-2.5326,-2.5328,-2.5329,0,-2.5709,-2.5681,-2.5667,-2.5646,-2.5635,-2.5615,-2.559,-2.5592,-2.5517,-2.5513,-2.5504,-2.5493,-2.5472,-2.546,-2.5437,-2.5411,-2.5359,-2.535,-2.5359,-2.5378,-2.5399,-2.5389,-2.5202,-2.5346,-2.5344,-2.5343,-2.5342,-2.5342,-2.582,-2.583,-2.579,-2.5779,-2.5754,-2.5733,-2.5737,-2.5696,-2.5687,-2.5664,-2.5626,-2.5623,-2.5589,-2.5552,-2.5531,-2.5529,-2.5498,-2.5512,-2.5515,-2.552,-2.553,-2.54,-2.5525,-2.5524,-2.5524,-2.5523,-2.5523,0,-2.5957,-2.5928,-2.5919,-2.5887,-2.5879,-2.5831,-2.5802,-2.5799,-2.5797,-2.5769,-2.5756,-2.5748,-2.5737,-2.569,-2.5674,-2.5682,-2.5658,-2.5681,-2.5679,-2.5675,-2.5558,-2.5552,-2.57,-2.57,-2.57,-2.57,-2.57,-2.57,-2.6027,-2.6041,-2.6008,-2.601,-2.5981,-2.5977,-2.5966,-2.5947,-2.5925,-2.5918,-2.5908,-2.5877,-2.5842,-2.5824,-2.5813,-2.58,-2.5798,-2.5829,-2.5808,-2.5699,-2.5682,-2.5666,-2.566,-2.5829,-2.5829,-2.5924,-2.5925,-2.5925]},{"header":{"parameterUnit":"m.s-1","parameterCategory":1,"la1":30.2991,"la2":30.254,"lo1":-89.0895,"lo2":-89.0444,"dy":0.0017,"dx":0.0017,"nx":28,"ny":28,"refTime":"2025-06-02T21:00:00:Z","depth":0,"parameterNumber":3,"parameterNumberName":"V-component_of_WINDS"},"data":[0,0,0,0,0,0,0,0,0,0,0,0,0,0,0,0,0,0,0,0,0,0,0,0,0,0,0,0,0,0,0,0,0,0,0,0,0,0,0,0,0,0,0,0,0,0,0,0,0,0,0,0,0,0,0,0,0,0,2.3453,2.3453,0,2.3489,2.3489,2.349,2.3546,2.3547,2.3548,2.3549,2.3583,2.3583,2.3583,0,0,0,0,0,0,0,0,0,0,0,0,0,2.343,2.343,2.3453,2.3454,2.3454,2.3489,2.3489,2.349,2.3546,2.3547,2.3548,2.3549,2.3583,2.3583,2.3583,0,0,0,0,0,0,0,0,0,0,0,0,0,2.345,2.343,2.3453,2.3486,2.3489,2.3489,2.349,2.349,2.3545,2.3547,2.3548,2.355,2.3583,2.3583,2.3583,2.3552,0,0,2.3582,2.3582,0,0,0,0,0,0,0,0,2.3449,2.3451,2.3481,2.3484,2.3487,2.3515,2.3494,2.3511,2.3545,2.3524,2.3549,2.355,2.3559,2.3561,2.3564,2.3554,2.3555,2.3582,2.3582,2.3582,2.3582,0,0,0,0,0,0,0,2.3448,2.345,2.3467,2.3481,2.3485,2.3498,2.3503,2.3497,2.3532,2.3526,2.353,2.3534,2.3561,2.3564,2.3565,2.3556,2.3582,2.3582,2.3582,2.3582,2.3521,2.3519,0,0,0,0,0,0,2.3442,2.3448,2.3466,2.3468,2.3472,2.3497,2.3503,2.3504,2.3532,2.3538,2.3532,2.3536,2.3563,2.3565,2.3567,2.3531,2.3582,2.3582,2.3582,2.3522,2.352,2.3519,0,0,0,0,0,0,2.3441,2.3443,2.3465,2.346,2.3463,2.3496,2.3498,2.3504,2.3507,2.3537,2.3544,2.3529,2.3565,2.3567,2.3555,2.3533,2.3582,2.3582,2.3524,2.3522,2.352,2.3461,0,0,0,0,0,0,2.344,2.3442,2.3431,2.3459,2.3463,2.3453,2.3496,2.3504,2.3507,2.3513,2.3536,2.3541,2.3566,2.3555,2.3555,2.3534,2.3582,2.3526,2.3523,2.352,2.3465,2.3457,2.345,0,0,0,0,0,2.3439,2.3413,2.3431,2.3432,2.3451,2.3452,2.3454,2.3484,2.3506,2.3494,2.3514,2.3541,2.3536,2.3553,2.3554,2.3533,2.3528,2.3524,2.3521,2.3469,2.3459,2.3451,0,0,0,0,0,0,2.3381,2.3417,2.3437,2.3419,2.3432,2.3461,2.3448,2.3472,2.3479,2.3483,2.3519,2.3523,2.3507,2.3519,2.3537,2.3504,2.3536,2.3532,2.3496,2.3487,2.348,2.3476,2.3582,0,0,0,0,0,2.3367,2.3365,2.3397,2.3378,2.3384,2.3415,2.3416,2.3438,2.3452,2.3458,2.3476,2.3488,2.349,2.349,2.3493,2.3468,2.3473,2.3454,2.3446,2.344,2.3436,2.3423,2.3414,2.3507,2.3507,2.3507,0,0,2.3336,2.3356,2.3352,2.3367,2.3379,2.3376,2.3419,2.3414,2.3411,2.3457,2.3447,2.3461,2.3477,2.3458,2.3451,2.3468,2.3412,2.3436,2.343,2.3429,2.3418,2.3409,2.3401,2.3504,2.3505,2.3505,0,0,2.3278,2.3293,2.3279,2.3291,2.331,2.3331,2.3327,2.3353,2.3364,2.3355,2.3389,2.3386,2.3388,2.3398,2.3403,2.3349,2.3373,2.3349,2.3309,2.3296,2.3288,2.3282,2.3261,2.3253,2.3345,2.3345,2.3345,0,2.3237,2.3234,2.3268,2.3261,2.3266,2.3308,2.3293,2.3303,2.3321,2.3323,2.3342,2.3345,2.3359,2.3343,2.3329,2.3333,2.3329,2.3345,2.3287,2.3281,2.3275,2.3256,2.3248,2.3342,2.3342,2.3342,2.3343,0,2.3182,2.318,2.3166,2.3183,2.3187,2.3176,2.3207,2.3207,2.3228,2.3247,2.3237,2.3255,2.3262,2.326,2.3281,2.3247,2.3256,2.3281,2.3313,2.3263,2.3245,2.3238,2.3337,2.3338,2.3339,2.334,0,0,2.3087,2.3124,2.3118,2.3126,2.315,2.3149,2.314,2.3147,2.3145,2.3157,2.3149,2.315,2.3172,2.3178,2.3201,2.3189,2.3143,2.3215,2.3216,2.3199,2.3105,2.3085,2.3076,2.3161,2.316,2.3159,2.3103,0,2.3033,2.3019,2.305,2.3028,2.3026,2.3066,2.3058,2.3071,2.3089,2.3088,2.3108,2.3107,2.3138,2.3141,2.3132,2.3151,2.3124,2.3156,2.3152,2.3151,2.3144,2.3067,2.3046,2.2992,2.3096,2.3095,2.3094,0,2.2967,2.2976,2.2954,2.2979,2.2979,2.2971,2.298,2.298,2.2996,2.3009,2.3016,2.3043,2.3034,2.3067,2.3055,2.3075,2.3076,2.3085,2.3084,2.3083,2.3118,2.3062,2.2976,2.2967,2.3084,2.3085,2.3086,0,2.2897,2.2904,2.2892,2.2898,2.2927,2.292,2.2932,2.2949,2.2952,2.296,2.2962,2.2968,2.2971,2.2975,2.3003,2.3024,2.2987,2.3022,2.2996,2.2995,2.2984,2.2984,2.2895,2.2988,2.2988,2.2988,2.2988,0,2.2832,2.2817,2.2861,2.2853,2.2837,2.2872,2.2855,2.2871,2.2886,2.2881,2.2917,2.2911,2.2949,2.2947,2.2968,2.2954,2.2956,2.2965,2.2971,2.2961,2.2959,2.296,2.2964,2.2986,2.2987,2.2987,2.2987,0,2.2751,2.278,2.2769,2.2798,2.2805,2.2792,2.2816,2.2809,2.283,2.2823,2.2823,2.2854,2.2854,2.2883,2.2888,2.2903,2.2878,2.2892,2.2873,2.2876,2.2848,2.2849,2.2755,2.2743,2.2845,2.2844,2.2843,0,2.2706,2.2695,2.2724,2.2723,2.2734,2.2733,2.2736,2.277,2.2771,2.2789,2.2779,2.2783,2.2787,2.2784,2.2807,2.2811,2.2823,2.279,2.2824,2.2814,2.282,2.282,2.2818,2.2782,2.2781,2.278,2.2779,0,2.2623,2.2638,2.2642,2.265,2.2652,2.266,2.267,2.2668,2.2706,2.2705,2.2706,2.2709,2.2715,2.2717,2.2725,2.2737,2.2763,2.2768,2.2762,2.2751,2.2739,2.2743,2.2851,2.277,2.2771,2.2771,2.2772,2.2772,2.2558,2.255,2.2568,2.257,2.2582,2.2591,2.2586,2.2605,2.2607,2.2615,2.2635,2.2632,2.2648,2.2662,2.2671,2.2668,2.2685,2.2676,2.2674,2.2671,2.2664,2.2742,2.267,2.2671,2.2671,2.2671,2.2671,0,2.2475,2.2489,2.2491,2.2504,2.2506,2.2533,2.2545,2.2544,2.2541,2.2554,2.2558,2.2558,2.256,2.2583,2.2588,2.2581,2.2593,2.2581,2.2581,2.2582,2.265,2.2654,2.2571,2.2571,2.2571,2.2571,2.2571,2.2571,2.2432,2.2419,2.2437,2.243,2.2444,2.2442,2.2447,2.2454,2.2465,2.2464,2.2466,2.2481,2.2498,2.2504,2.2507,2.2513,2.2512,2.2495,2.2506,2.2568,2.2578,2.2587,2.2591,2.2496,2.2495,2.2438,2.2437,2.2437]}]]